Weather History for Kelso-Longview, WA

Change the Weather History Date:

Sunday, November 10, 2013

  Actual Average Record
Temperature  
Mean Temperature 47 °F -  
Max Temperature 53 °F 51 °F 60 °F (1997)
Min Temperature 41 °F 39 °F 30 °F (2011)
Degree Days  
Heating Degree Days 18    
Moisture  
Dew Point 42 °F    
Average Humidity 83    
Maximum Humidity 93    
Minimum Humidity 72    
Precipitation  
Precipitation 0.00 in - - ()
Sea Level Pressure  
Sea Level Pressure 30.11 in    
Wind  
Wind Speed 1 mph (NNW)    
Max Wind Speed 8 mph    
Max Gust Speed -    
Visibility 10 miles    
Events      
Averages and records for this station are not official NWS values.
T = Trace of Precipitation, MM = Missing Value Source: NWS Daily Summary

Daily Weather History Graph

Daily Weather History Graph

Search for Another Location

Airport:

Trip Planner

Search our weather history database for the weather conditions in past years. The results will help you decide how hot, cold, wet, or windy it might be!

Date:

Astronomy

Nov. 10, 2013 Rise Set
Actual Time 7:05 AM PST 4:44 PM PST
Civil Twilight 6:33 AM PST 5:16 PM PST
Nautical Twilight 5:57 AM PST 5:52 PM PST
Astronomical Twilight 5:22 AM PST 6:27 PM PST
Moon 1:14 PM PST (11/10) No Moon Set
Length of Visible Light 10h 43m
Length of Day
9h 38m
First Quarter, 56% of the Moon is Illuminated
Nov 10
First Quarter
Nov 17
Full
Nov 25
Last Quarter
Dec 2
New
Dec 9
First Quarter

Hourly Weather History & Observations

Time (PST) Temp. Windchill Dew Point Humidity Pressure Visibility Wind Dir Wind Speed Gust Speed Precip Events Conditions
12:15 AM 46.4 °F - 41.0 °F 81% 30.10 in 10.0 mi North - - N/A   Overcast
12:35 AM 46.4 °F - 41.0 °F 81% 30.10 in 10.0 mi North - - N/A   Overcast
12:55 AM 46.4 °F - 42.8 °F 87% 30.11 in 10.0 mi Calm Calm - N/A   Overcast
1:15 AM 46.4 °F - 42.8 °F 87% 30.10 in 10.0 mi Calm Calm - N/A   Overcast
1:35 AM 44.6 °F - 42.8 °F 93% 30.10 in 10.0 mi North - - N/A   Overcast
1:55 AM 46.4 °F - 42.8 °F 87% 30.10 in 10.0 mi North - - N/A   Overcast
2:15 AM 46.4 °F - 42.8 °F 87% 30.10 in 10.0 mi North - - N/A   Overcast
2:35 AM 46.4 °F - 42.8 °F 87% 30.10 in 10.0 mi North - - N/A   Overcast
2:55 AM 46.4 °F - 42.8 °F 87% 30.09 in 10.0 mi North - - N/A   Overcast
3:15 AM 46.4 °F - 42.8 °F 87% 30.09 in 10.0 mi North - - N/A   Overcast
3:35 AM 46.4 °F - 42.8 °F 87% 30.09 in 10.0 mi Calm Calm - N/A   Overcast
3:55 AM 44.6 °F - 41.0 °F 87% 30.08 in 10.0 mi North - - N/A   Mostly Cloudy
4:15 AM 44.6 °F - 41.0 °F 87% 30.09 in 7.0 mi North - - N/A   Clear
4:35 AM 44.6 °F - 41.0 °F 87% 30.09 in 9.0 mi North - - N/A   Scattered Clouds
4:55 AM 44.6 °F - 41.0 °F 87% 30.09 in 9.0 mi Calm Calm - N/A   Mostly Cloudy
5:15 AM 42.8 °F - 39.2 °F 87% 30.09 in 3.0 mi Calm Calm - N/A   Scattered Clouds
5:35 AM 42.8 °F - 39.2 °F 87% 30.09 in 7.0 mi North - - N/A   Partly Cloudy
5:55 AM 42.8 °F - 39.2 °F 87% 30.09 in 10.0 mi North - - N/A   Clear
6:15 AM 42.8 °F - 39.2 °F 87% 30.10 in 9.0 mi Calm Calm - N/A   Partly Cloudy
6:35 AM 41.0 °F - 37.4 °F 87% 30.10 in 8.0 mi Calm Calm - N/A   Clear
6:55 AM 42.8 °F - 39.2 °F 87% 30.10 in 8.0 mi Calm Calm - N/A   Partly Cloudy
7:15 AM 41.0 °F - 37.4 °F 87% 30.10 in 7.0 mi Calm Calm - N/A   Partly Cloudy
7:35 AM 41.0 °F - 37.4 °F 87% 30.11 in 8.0 mi Calm Calm - N/A   Partly Cloudy
7:55 AM 42.8 °F - 39.2 °F 87% 30.12 in 9.0 mi Calm Calm - N/A   Mostly Cloudy
8:15 AM 42.8 °F - 39.2 °F 87% 30.12 in 10.0 mi Calm Calm - N/A   Overcast
8:35 AM 44.6 °F 43.1 °F 41.0 °F 87% 30.12 in 10.0 mi SE 3.5 mph - N/A   Overcast
8:55 AM 44.6 °F - 42.8 °F 93% 30.13 in 10.0 mi Calm Calm - N/A   Overcast
9:15 AM 46.4 °F - 42.8 °F 87% 30.13 in 10.0 mi Calm Calm - N/A   Scattered Clouds
9:35 AM 46.4 °F - 42.8 °F 87% 30.13 in 10.0 mi Calm Calm - N/A   Partly Cloudy
9:55 AM 48.2 °F - 42.8 °F 82% 30.14 in 10.0 mi Calm Calm - N/A   Mostly Cloudy
10:15 AM 50.0 °F - 42.8 °F 76% 30.14 in 10.0 mi NNW 4.6 mph - N/A   Overcast
10:35 AM 51.8 °F - 44.6 °F 76% 30.13 in 10.0 mi NNW 8.1 mph - N/A   Scattered Clouds
10:55 AM 51.8 °F - 44.6 °F 76% 30.13 in 10.0 mi NNW 8.1 mph - N/A   Mostly Cloudy
11:15 AM 51.8 °F - 44.6 °F 76% 30.13 in 10.0 mi NNW 6.9 mph - N/A   Mostly Cloudy
11:35 AM 51.8 °F - 44.6 °F 76% 30.12 in 10.0 mi NNW 8.1 mph - N/A   Clear
11:55 AM 51.8 °F - 44.6 °F 76% 30.12 in 10.0 mi North - - N/A   Mostly Cloudy
12:15 PM 53.6 °F - 44.6 °F 72% 30.11 in 10.0 mi North - - N/A   Overcast
12:35 PM 53.6 °F - 44.6 °F 72% 30.10 in 10.0 mi NNW 6.9 mph - N/A   Mostly Cloudy
12:55 PM 53.6 °F - 44.6 °F 72% 30.10 in 10.0 mi North - - N/A   Clear
1:15 PM 53.6 °F - 44.6 °F 72% 30.10 in 10.0 mi NNW 5.8 mph - N/A   Clear
1:35 PM 53.6 °F - 44.6 °F 72% 30.10 in 10.0 mi NW 5.8 mph - N/A   Clear
1:55 PM 53.6 °F - 46.4 °F 77% 30.10 in 10.0 mi North 5.8 mph - N/A   Clear
2:15 PM 53.6 °F - 44.6 °F 72% 30.10 in 10.0 mi North 6.9 mph - N/A   Clear
2:35 PM 53.6 °F - 44.6 °F 72% 30.10 in 10.0 mi North - - N/A   Partly Cloudy
2:55 PM 53.6 °F - 44.6 °F 72% 30.09 in 10.0 mi North - - N/A   Partly Cloudy
3:15 PM 53.6 °F - 44.6 °F 72% 30.09 in 10.0 mi North - - N/A   Clear
3:35 PM 53.6 °F - 44.6 °F 72% 30.10 in 10.0 mi North 5.8 mph - N/A   Clear
3:55 PM 51.8 °F - 44.6 °F 76% 30.10 in 10.0 mi North 5.8 mph - N/A   Clear
4:15 PM 51.8 °F - 44.6 °F 76% 30.10 in 10.0 mi Calm Calm - N/A   Clear
4:35 PM 51.8 °F - 44.6 °F 76% 30.11 in 10.0 mi North - - N/A   Clear
4:55 PM 50.0 °F - 44.6 °F 82% 30.11 in 10.0 mi Calm Calm - N/A   Clear
5:15 PM 48.2 °F - 44.6 °F 87% 30.11 in 10.0 mi Calm Calm - N/A   Clear
5:35 PM 48.2 °F - 44.6 °F 87% 30.11 in 10.0 mi Calm Calm - N/A   Clear
5:55 PM 48.2 °F - 42.8 °F 82% 30.11 in 10.0 mi Calm Calm - N/A   Clear
6:15 PM 46.4 °F - 42.8 °F 87% 30.11 in 10.0 mi Calm Calm - N/A   Clear
6:35 PM 46.4 °F - 42.8 °F 87% 30.11 in 10.0 mi Calm Calm - N/A   Clear
6:55 PM 44.6 °F - 41.0 °F 87% 30.12 in 10.0 mi Calm Calm - N/A   Clear
7:15 PM 44.6 °F - 41.0 °F 87% 30.12 in 10.0 mi Calm Calm - N/A   Clear
7:35 PM 44.6 °F - 41.0 °F 87% 30.12 in 10.0 mi Calm Calm - N/A   Clear
7:55 PM 42.8 °F - 39.2 °F 87% 30.12 in 8.0 mi Calm Calm - N/A   Partly Cloudy
8:15 PM 42.8 °F - 39.2 °F 87% 30.12 in 8.0 mi Calm Calm - N/A   Partly Cloudy
8:35 PM 44.6 °F - 41.0 °F 87% 30.12 in 10.0 mi Calm Calm - N/A   Partly Cloudy
8:55 PM 42.8 °F - 39.2 °F 87% 30.12 in 8.0 mi Calm Calm - N/A   Scattered Clouds
9:15 PM 42.8 °F - 39.2 °F 87% 30.12 in 9.0 mi Calm Calm - N/A   Mostly Cloudy
9:35 PM 44.6 °F - 41.0 °F 87% 30.12 in 8.0 mi Calm Calm - N/A   Overcast
9:55 PM 44.6 °F - 42.8 °F 93% 30.12 in 10.0 mi Calm Calm - N/A   Overcast
10:15 PM 46.4 °F - 42.8 °F 87% 30.12 in 10.0 mi Calm Calm - N/A   Overcast
10:35 PM 46.4 °F - 42.8 °F 87% 30.12 in 9.0 mi Calm Calm - N/A   Overcast
10:55 PM 46.4 °F - 42.8 °F 87% 30.12 in 10.0 mi Calm Calm - N/A   Overcast
11:15 PM 46.4 °F - 44.6 °F 93% 30.11 in 10.0 mi Calm Calm - N/A   Overcast
11:35 PM 48.2 °F - 44.6 °F 87% 30.11 in 10.0 mi NNW 4.6 mph - N/A   Overcast
11:55 PM 48.2 °F - 44.6 °F 87% 30.11 in 10.0 mi North 4.6 mph - N/A   Overcast